Weather History for Riverside March, CA

Change the Weather History Date:

Wednesday, February 19, 2014

  Actual Average Record
Temperature  
Mean Temperature 54 °F -  
Max Temperature 66 °F 62 °F 75 °F (1997)
Min Temperature 43 °F 41 °F 35 °F (2006)
Degree Days  
Heating Degree Days 10    
Growing Degree Days 4 (Base 50)    
Moisture  
Dew Point 47 °F    
Average Humidity 82    
Maximum Humidity 100    
Minimum Humidity 51    
Precipitation  
Precipitation 0.00 in - - ()
Sea Level Pressure  
Sea Level Pressure 29.96 in    
Wind  
Wind Speed 4 mph (West)    
Max Wind Speed 14 mph    
Max Gust Speed 21 mph    
Visibility 6 miles    
Events Fog    
Averages and records for this station are not official NWS values.
T = Trace of Precipitation, MM = Missing Value Source: NWS Daily Summary

Daily Weather History Graph

Daily Weather History Graph

Search for Another Location

Airport:

Trip Planner

Search our weather history database for the weather conditions in past years. The results will help you decide how hot, cold, wet, or windy it might be!

Date:

Astronomy

Feb. 19, 2014 Rise Set
Actual Time 6:29 AM PST 5:36 PM PST
Civil Twilight 6:03 AM PST 6:02 PM PST
Nautical Twilight 5:34 AM PST 6:31 PM PST
Astronomical Twilight 5:05 AM PST 7:00 PM PST
Moon 10:19 PM PST (2/19) 8:52 AM PST (2/19)
Length of Visible Light 11h 58m
Length of Day
11h 07m
Waning Gibbous, 79% of the Moon is Illuminated
Feb 19
Waning Gibbous
Feb 22
Last Quarter
Mar 1
New
Mar 8
First Quarter
Mar 16
Full

Hourly Weather History & Observations

Time (PST) Temp. Windchill Dew Point Humidity Pressure Visibility Wind Dir Wind Speed Gust Speed Precip Events Conditions
12:58 AM 49.3 °F - 44.2 °F 83% 29.98 in 10.0 mi SSW 4.6 mph - N/A   Clear
1:58 AM 44.6 °F - 40.5 °F 85% 29.96 in 9.0 mi Calm Calm - N/A   Clear
2:58 AM 43.5 °F - 41.0 °F 91% 29.94 in 6.0 mi Calm Calm - N/A   Clear
3:58 AM 46.9 °F - 44.8 °F 92% 29.94 in 8.0 mi WNW 1.2 mph - N/A   Overcast
4:58 AM 48.2 °F - 45.7 °F 91% 29.94 in 6.0 mi West 3.5 mph - N/A   Partly Cloudy
5:48 AM 46.4 °F 43.5 °F 42.8 °F 87% 29.97 in 5.0 mi WNW 5.8 mph - N/A   Partly Cloudy
5:58 AM 45.7 °F 42.7 °F 44.1 °F 94% 29.97 in 4.0 mi WNW 5.8 mph - N/A   Mostly Cloudy
6:12 AM 46.4 °F 43.5 °F 46.4 °F 100% 29.97 in 2.2 mi NW 5.8 mph - N/A   Overcast
6:29 AM 48.2 °F - 48.2 °F 100% 29.98 in 1.5 mi West 3.5 mph - N/A   Overcast
6:50 AM 50.0 °F - 48.2 °F 94% 29.98 in 1.2 mi WNW 3.5 mph - N/A   Overcast
6:58 AM 49.8 °F - 48.7 °F 96% 29.98 in 1.2 mi Calm Calm - N/A   Overcast
7:10 AM 50.0 °F - 48.2 °F 94% 29.99 in 1.1 mi Calm Calm - N/A   Overcast
7:39 AM 50.0 °F - 48.2 °F 94% 30.00 in 0.8 mi ESE 2.3 mph - N/A   Overcast
7:51 AM 50.0 °F - 48.2 °F 94% 30.00 in 0.5 mi SSE 3.5 mph - N/A Fog Fog
7:58 AM 49.6 °F - 48.9 °F 97% 30.00 in 0.5 mi SSE 2.3 mph - N/A Fog Fog
8:14 AM 50.0 °F - 48.2 °F 94% 30.02 in 0.8 mi South 2.3 mph - N/A   Overcast
8:41 AM 50.0 °F - 48.2 °F 94% 29.99 in 1.0 mi ESE 5.8 mph - N/A   Overcast
8:58 AM 50.7 °F - 48.7 °F 93% 29.98 in 1.1 mi ESE 5.8 mph - N/A   Mostly Cloudy
9:26 AM 51.8 °F - 48.2 °F 88% 29.98 in 2.5 mi SSE 4.6 mph - N/A   Scattered Clouds
9:38 AM 53.6 °F - 48.2 °F 82% 29.97 in 3.0 mi South 4.6 mph - N/A   Haze
9:58 AM 55.2 °F - 48.0 °F 77% 29.98 in 4.0 mi Calm Calm - N/A   Haze
10:58 AM 63.5 °F - 47.8 °F 57% 29.98 in 9.0 mi NNW 8.1 mph - N/A   Clear
11:58 AM 63.7 °F - 48.2 °F 57% 29.94 in 10.0 mi Variable 6.9 mph - N/A   Clear
12:58 PM 66.0 °F - 47.7 °F 52% 29.92 in 10.0 mi NW 9.2 mph - N/A   Clear
1:58 PM 65.8 °F - 49.3 °F 55% 29.90 in 6.0 mi NW 13.8 mph 20.7 mph N/A   Haze
2:58 PM 66.0 °F - 47.3 °F 51% 29.89 in 6.0 mi WNW 10.4 mph - N/A   Haze
3:58 PM 66.4 °F - 47.7 °F 51% 29.88 in 7.0 mi NW 5.8 mph 17.3 mph N/A   Partly Cloudy
4:58 PM 64.4 °F - 47.8 °F 55% 29.90 in 9.0 mi NW 8.1 mph - N/A   Clear
5:58 PM 60.4 °F - 47.8 °F 63% 29.91 in 10.0 mi West 5.8 mph - N/A   Clear
6:58 PM 56.1 °F - 47.5 °F 73% 29.94 in 10.0 mi NW 9.2 mph - N/A   Clear
7:58 PM 54.0 °F - 46.8 °F 77% 29.94 in 10.0 mi NNE 1.2 mph - N/A   Clear
8:58 PM 51.8 °F - 46.0 °F 81% 29.95 in 10.0 mi Calm Calm - N/A   Clear
9:58 PM 47.7 °F - 43.9 °F 87% 29.96 in 10.0 mi WNW 4.6 mph - N/A   Clear
10:58 PM 46.8 °F - 43.5 °F 88% 29.96 in 9.0 mi West 1.2 mph - N/A   Clear
11:58 PM 47.5 °F - 44.2 °F 89% 29.96 in 8.0 mi Calm Calm - N/A   Clear